Overview Statistics Trail Chart Weather Telemetry Raw packets
 

This is the latest recevied weather packets stored in our database for station/object N2ZVN. If no packets are shown the sender has not sent any weather packets the latest 10 day(s).

<< 91 92 93 94 95 96 97 >>
Time Temp. Humidity Pressure Rain* Wind** Luminosity Snow
1788030537 24.44° C 49% 1022.2 hPa 0 mm - 87 W/m² -
1788030232 24.44° C 53% 1022.4 hPa 0 mm - 140 W/m² -
1788029927 24.44° C 51% 1022.6 hPa 0 mm - 52 W/m² -
1788029623 24.44° C 53% 1022.7 hPa 0 mm - 56 W/m² -
1788029318 24.44° C 53% 1022.5 hPa 0 mm - 65 W/m² -
1788029016 24.44° C 50% 1022.5 hPa 0 mm - 94 W/m² -
1788028716 24.44° C 51% 1022.8 hPa 0 mm - 629 W/m² -
1788028410 24.44° C 52% 1022.6 hPa 0 mm - 406 W/m² -
1788028107 23.89° C 50% 1023 hPa 0 mm - 62 W/m² -
1788027807 23.89° C 53% 1023.1 hPa 0 mm - 75 W/m² -
1788027506 23.89° C 51% 1023 hPa 0 mm - 65 W/m² -
1788027201 23.89° C 58% 1022.9 hPa 0 mm - 297 W/m² -
1788026901 23.89° C 53% 1023.4 hPa 0 mm - 234 W/m² -
1788026597 23.89° C 56% 1023.4 hPa 0 mm - 88 W/m² -
1788026296 23.89° C 55% 1023.4 hPa 0 mm - 66 W/m² -
1788025992 23.89° C 55% 1023.6 hPa 0 mm - 66 W/m² -
1788025691 23.89° C 53% 1023.7 hPa 0 mm - 146 W/m² -
1788025390 23.89° C 55% 1023.6 hPa 0 mm - 90 W/m² -
1788025086 23.33° C 55% 1023.5 hPa 0 mm - 148 W/m² -
1788024785 23.33° C 53% 1023.7 hPa 0 mm - 99 W/m² -
1788024482 23.33° C 54% 1023.6 hPa 0 mm - 225 W/m² -
1788024181 23.33° C 54% 1023.5 hPa 0 mm - 125 W/m² -
1788023877 23.33° C 54% 1023.6 hPa 0 mm - 106 W/m² -
1788023572 23.33° C 53% 1023.9 hPa 0 mm - 417 W/m² -
1788023267 23.89° C 50% 1023.9 hPa 0 mm - 356 W/m² -

* Rain latest hour (hover to see other rain measurements)
** Current wind speed in m/s (hover to see current wind gust speed)